Search your local weather  

 
Advertise Here

Hazardous Weather Conditions

No active alerts for HOUSTON, TEXAS

Current Conditions: HOUSTON, TEXAS

Thunderstorm Light Rain Fog/Mist


62.0 F

Last Updated on Apr 18 2019, 4:53 am CDT
Humidity: 100%
Wind Speed: N 12.7 mph
Barometer 29.74 in
Dewpoint: 62.1 F
Visibility: 5.00 mi
Precip: 00.83 in
Heat Index: NA
Wind Chill: 60 F
Current conditions at:

Houston, Hooks Memorial Airport, TX (KDWH)

Lat: 30.06 Lon: -95.556

Local Radar Image active severe weather and emergency alerts image image weather storm and storm spotter reports image weather observation monitoring service image
Local
Radar
Active
Alerts
Storm Reports Weather
Monitoring

Weather Alert Notification Services


ialert severe weather and emergency alerts by text message and email ialert daily weather forecast by email and text message service ialert real-time weather-observation monitoring and alert notification service ialert storm report monitoring alert notification

Observation History for HOUSTON, TEXAS


Time Wind
(mph)
Vis
(mi)
Weather Precip (in) Temperature (F) Relative
Humidity
Wind
Chill
(°F)
Heat
Index
(°F)
Pressure
Air Dwpt altimeter
(in)
sea level
(mb)
4:53 am CDT N 12.7 5.00 Thunderstorm Light Rain Fog/Mist 00.83 62.0 62.1 100% 60 NA 29.74 1007.0
3:53 am CDT NW 15.0 G 24.2 2.50 Thunderstorm in Vicinity Light Rain Fog/Mist 00.17 64.0 63.0 96% NA NA 29.76 1007.3
2:53 am CDT SW 11.5 10.00 Overcast -- 74.0 70.0 88% NA NA 29.73 1006.6
1:53 am CDT S 9.2 G 25.3 10.00 Overcast -- 73.0 70.0 90% NA NA 29.64 1003.4
12:53 am CDT SE 12.7 G 29.9 9.00 Overcast -- 73.0 71.1 94% NA NA 29.65 1003.7
11:53 pm CDT SE 12.7 G 27.6 7.00 Overcast -- 73.0 72.0 96% NA NA 29.69 1005.2
10:53 pm CDT SE 9.2 4.00 Fog/Mist Trace 72.0 72.0 100% NA NA 29.74 1006.8
9:53 pm CDT SE 11.5 1.00 Light Rain Fog/Mist 00.01 71.0 71.1 100% NA NA 29.76 1007.6
8:53 pm CDT SE 9.2 3.00 Light Rain Fog/Mist Trace 71.0 71.1 100% NA NA 29.77 1007.7
7:53 pm CDT SE 9.2 G 19.6 4.00 Light Rain Fog/Mist Trace 71.0 70.0 96% NA NA 29.76 1007.6
6:53 pm CDT SE 17.3 G 25.3 10.00 Overcast -- 74.0 69.1 85% NA NA 29.76 1007.5
5:53 pm CDT SE 10.4 10.00 Overcast -- 75.0 71.1 88% NA NA 29.77 1007.8
4:53 pm CDT SE 8.1 6.00 Fog/Mist 00.01 73.0 71.1 94% NA NA 29.80 1008.7
3:53 pm CDT 4.00 Overcast with Haze Trace 76.0 70.0 82% NA NA 29.81 1009.3
2:53 pm CDT 5.8 G 17.3 10.00 Overcast -- 78.0 70.0 76% NA NA 29.83 1009.7
1:53 pm CDT S 6.9 G 21.9 10.00 Overcast -- 76.0 70.0 82% NA NA 29.85 1010.6
12:53 pm CDT SE 11.5 G 21.9 10.00 Overcast -- 76.0 70.0 82% NA NA 29.86 1010.8
11:53 am CDT 6.9 10.00 Overcast -- 76.0 71.1 85% NA NA 29.90 1012.1
10:53 am CDT 5.8 10.00 Mostly Cloudy -- 75.0 70.0 84% NA NA 29.89 1011.9
9:53 am CDT 4.6 10.00 Overcast -- 74.0 71.1 91% NA NA 29.90 1012.3
8:53 am CDT S 4.6 10.00 Overcast -- 72.0 71.1 97% NA NA 29.90 1012.2
7:53 am CDT SE 9.2 6.00 Fog/Mist -- 70.0 70.0 100% NA NA 29.89 1012.1
6:53 am CDT SE 5.8 2.50 Fog/Mist -- 69.0 69.1 100% NA NA 29.89 1011.8
5:53 am CDT S 9.2 10.00 Overcast -- 70.0 68.0 93% NA NA 29.90 1012.1

Regional Weather Observation

John Dunn Helistop, TX (KMCJ)

Fog/Mist
63.0 F

Houston, Houston Hobby Airport, TX (KHOU)

Light Rain and Windy
65.0 F

Houston Southwest Airport, TX (KAXH)

Light Rain
62.0 F

Conroe, Montgomery County Airport, TX (KCXO)

Thunderstorm in Vicinity Light Rain
63.0 F

Houston, Pearland Regional Airport, TX (KLVJ)

Light Rain and Breezy
69.0 F

Cleveland, TX (K6R3)

Thunderstorm Light Rain
64.0 F
Advertise Here

Advertise Here